Date String (YYYY-MM-DD hh:mm:ss) UTC,Instrument flags,absolute air pressure of the measurement (hPa),sample flow rate (lpm),inlet stack bypass flow (lpm),air temperature of the measurement (°C),ambient temperature measured by the external sensor (°C),aerosol sample conditioner tube jacket temperature (°C),OPC LED temperature (°C),internal box temperature (°C),relative humidity of the measurement (%),span deviation,mass concentration of particles derived from Lorenz-Mie calculation of OPC scattering (μg/m³),mass concentration of particles derived from Lorenz-Mie calculation of OPC scattering (μg/m³),mass concentration of particles derived from Lorenz-Mie calculation of OPC scattering (μg/m³)
DateTimeUTC,F1_M11,P_M11,Q1_M11,Q2_M11,T1_M11,T2_M11,T3_M11,T4_M11,T5_M11,U1_M11,ZSPAN_M11,X0_M11,X2_M11,X1_M11
2024-03-29 18:00:00,SystemResetWarning,0823.0,5.00,000.00,019.4,019.0,000.0,027.7,021.2,28.2,0000.0,0008.66,0003.82,0003.33
2024-03-29 18:01:00,SystemResetWarning,0822.9,5.00,000.00,019.4,019.0,000.0,027.7,021.2,28.1,0000.0,0010.19,0003.84,0003.33
2024-03-29 18:02:00,SystemResetWarning,0822.9,5.00,000.00,019.5,019.1,000.0,027.7,021.3,27.5,0000.0,0010.13,0003.84,0003.33
2024-03-29 18:03:00,SystemResetWarning,0822.9,4.99,000.00,019.5,019.1,000.0,027.8,021.3,28.6,0000.0,0009.76,0003.83,0003.33
2024-03-29 18:04:00,SystemResetWarning,0823.1,5.00,000.00,019.5,019.1,000.0,027.8,021.3,30.1,0000.0,0009.71,0003.80,0003.31
2024-03-29 18:05:00,SystemResetWarning,0823.0,4.99,000.00,019.5,019.1,000.0,027.8,021.3,29.8,0000.0,0010.00,0003.79,0003.31
2024-03-29 18:06:00,SystemResetWarning,0822.9,4.99,000.00,019.5,019.1,000.0,027.8,021.3,29.3,0000.0,0010.20,0003.82,0003.32
2024-03-29 18:07:00,SystemResetWarning,0822.9,5.00,000.00,019.5,019.1,000.0,027.8,021.3,29.1,0000.0,0010.11,0003.85,0003.33
2024-03-29 18:08:00,SystemResetWarning,0823.1,5.00,000.00,019.6,019.2,000.0,027.8,021.3,28.7,0000.0,0009.96,0003.86,0003.32
2024-03-29 18:09:00,SystemResetWarning,0822.9,5.01,000.00,019.6,019.2,000.0,027.8,021.4,28.2,0000.0,0009.59,0003.83,0003.33
2024-03-29 18:10:00,SystemResetWarning,0822.9,5.00,000.00,019.6,019.2,000.0,027.9,021.4,28.2,0000.0,0009.22,0003.80,0003.32
2024-03-29 18:11:00,SystemResetWarning,0822.9,5.00,000.00,019.6,019.2,000.0,027.9,021.4,27.8,0000.0,0008.96,0003.80,0003.32
2024-03-29 18:12:00,SystemResetWarning,0822.9,5.00,000.00,019.6,019.2,000.0,027.9,021.4,27.5,0000.0,0007.65,0003.79,0003.32
2024-03-29 18:13:00,SystemResetWarning,0822.8,4.99,000.00,019.6,019.2,000.0,027.9,021.4,27.7,0000.0,0007.70,0003.82,0003.33
2024-03-29 18:14:00,SystemResetWarning,0823.0,4.99,000.00,019.7,019.2,000.0,027.9,021.4,28.3,0000.0,0007.75,0003.80,0003.34
2024-03-29 18:15:00,SystemResetWarning,0823.0,5.01,000.00,019.7,019.3,000.0,027.9,021.5,28.6,0000.0,0007.75,0003.81,0003.35
2024-03-29 18:16:00,SystemResetWarning,0823.0,5.02,000.00,019.7,019.3,000.0,028.0,021.5,28.3,0000.0,0007.55,0003.81,0003.35
2024-03-29 18:17:00,SystemResetWarning,0822.9,5.00,000.00,019.7,019.3,000.0,028.0,021.5,28.4,0000.0,0007.14,0003.78,0003.34
2024-03-29 18:18:00,SystemResetWarning,0822.9,4.99,000.00,019.7,019.3,000.0,028.0,021.5,28.2,0000.0,0007.18,0003.77,0003.34
2024-03-29 18:19:00,SystemResetWarning,0823.0,5.00,000.00,019.7,019.3,000.0,028.0,021.5,28.4,0000.0,0007.18,0003.75,0003.34
2024-03-29 18:20:00,SystemResetWarning,0823.0,4.99,000.00,019.7,019.3,000.0,028.0,021.5,28.4,0000.0,0007.33,0003.80,0003.35
2024-03-29 18:21:00,SystemResetWarning,0823.0,5.00,000.00,019.7,019.3,000.0,028.0,021.5,27.7,0000.0,0007.46,0003.82,0003.36
2024-03-29 18:22:00,SystemResetWarning,0823.0,5.00,000.00,019.8,019.3,000.0,028.0,021.5,28.2,0000.0,0007.45,0003.83,0003.37
2024-03-29 18:23:00,SystemResetWarning,0823.0,5.00,000.00,019.8,019.3,000.0,028.1,021.5,28.5,0000.0,0007.59,0003.87,0003.38
2024-03-29 18:24:00,SystemResetWarning,0823.1,5.00,000.00,019.8,019.3,000.0,028.1,021.5,28.6,0000.0,0007.32,0003.87,0003.39
2024-03-29 18:25:00,SystemResetWarning,0822.9,5.01,000.00,019.8,019.3,000.0,028.1,021.5,29.0,0000.0,0007.27,0003.91,0003.40
2024-03-29 18:26:00,SystemResetWarning,0823.1,5.01,000.00,019.8,019.3,000.0,028.1,021.5,27.7,0000.0,0007.32,0003.94,0003.41
2024-03-29 18:27:00,SystemResetWarning,0822.9,5.00,000.00,019.8,019.3,000.0,028.1,021.5,28.2,0000.0,0007.30,0003.93,0003.43
2024-03-29 18:28:00,SystemResetWarning,0823.0,5.00,000.00,019.8,019.3,000.0,028.1,021.6,28.9,0000.0,0007.34,0003.94,0003.44
2024-03-29 18:29:00,SystemResetWarning,0823.0,4.99,000.00,019.8,019.4,000.0,028.1,021.6,27.9,0000.0,0007.30,0003.95,0003.44
2024-03-29 18:30:00,SystemResetWarning,0823.0,4.99,000.00,019.8,019.4,000.0,028.1,021.6,27.4,0000.0,0007.17,0003.93,0003.45
2024-03-29 18:31:00,SystemResetWarning,0823.0,5.00,000.00,019.8,019.4,000.0,028.1,021.6,28.1,0000.0,0007.14,0003.91,0003.44
2024-03-29 18:32:00,SystemResetWarning,0823.0,5.00,000.00,019.9,019.4,000.0,028.2,021.6,27.5,0000.0,0006.68,0003.88,0003.44
2024-03-29 18:33:00,SystemResetWarning,0823.0,5.01,000.00,019.9,019.4,000.0,028.2,021.6,27.3,0000.0,0006.61,0003.88,0003.44
2024-03-29 18:34:00,SystemResetWarning,0822.9,5.01,000.00,019.9,019.4,000.0,028.2,021.7,27.2,0000.0,0006.40,0003.86,0003.43
2024-03-29 18:35:00,SystemResetWarning,0822.9,4.99,000.00,019.9,019.4,000.0,028.2,021.7,27.7,0000.0,0007.41,0003.85,0003.42
2024-03-29 18:36:00,SystemResetWarning,0823.0,4.99,000.00,019.9,019.4,000.0,028.2,021.7,28.4,0000.0,0007.32,0003.84,0003.41
2024-03-29 18:37:00,SystemResetWarning,0822.8,4.99,000.00,019.9,019.5,000.0,028.2,021.7,26.8,0000.0,0007.32,0003.81,0003.39
2024-03-29 18:38:00,SystemResetWarning,0822.9,5.00,000.00,019.9,019.5,000.0,028.2,021.7,26.4,0000.0,0007.33,0003.79,0003.35
2024-03-29 18:39:00,SystemResetWarning,0822.9,5.01,000.00,019.9,019.5,000.0,028.2,021.7,26.7,0000.0,0007.30,0003.78,0003.33
2024-03-29 18:40:00,SystemResetWarning,0822.8,5.01,000.00,020.0,019.5,000.0,028.2,021.7,26.4,0000.0,0007.23,0003.75,0003.31
2024-03-29 18:41:00,SystemResetWarning,0822.9,5.00,000.00,020.0,019.5,000.0,028.3,021.7,26.9,0000.0,0007.07,0003.71,0003.29
2024-03-29 18:42:00,SystemResetWarning,0822.9,5.00,000.00,020.0,019.5,000.0,028.3,021.8,26.1,0000.0,0006.79,0003.66,0003.27
2024-03-29 18:43:00,SystemResetWarning,0823.0,4.99,000.00,020.0,019.5,000.0,028.3,021.8,26.6,0000.0,0007.17,0003.63,0003.25
2024-03-29 18:44:00,SystemResetWarning,0822.8,4.99,000.00,020.0,019.6,000.0,028.3,021.8,27.1,0000.0,0007.58,0003.60,0003.23
2024-03-29 18:45:00,SystemResetWarning,0822.8,4.99,000.00,020.0,019.6,000.0,028.3,021.8,26.9,0000.0,0007.97,0003.59,0003.21
2024-03-29 18:46:00,SystemResetWarning,0823.4,5.01,000.00,020.0,019.6,000.0,028.3,021.8,27.1,0000.0,0007.40,0003.58,0003.18
2024-03-29 18:47:00,SystemResetWarning,0823.3,5.01,000.00,020.0,019.6,000.0,028.3,021.8,26.1,0000.0,0007.29,0003.57,0003.16
2024-03-29 18:48:00,SystemResetWarning,0823.2,5.00,000.00,020.0,019.6,000.0,028.4,021.8,25.8,0000.0,0007.07,0003.51,0003.14
2024-03-29 18:49:00,SystemResetWarning,0823.3,4.99,000.00,020.1,019.6,000.0,028.4,021.8,26.1,0000.0,0007.01,0003.48,0003.12
2024-03-29 18:50:00,SystemResetWarning,0823.3,4.99,000.00,020.1,019.6,000.0,028.4,021.8,26.3,0000.0,0007.00,0003.47,0003.11
2024-03-29 18:51:00,SystemResetWarning,0822.8,5.00,000.00,020.1,019.6,000.0,028.4,021.9,27.2,0000.0,0007.18,0003.49,0003.10
2024-03-29 18:52:00,SystemResetWarning,0823.0,4.99,000.00,020.1,019.7,000.0,028.4,021.9,26.6,0000.0,0007.53,0003.50,0003.09
2024-03-29 18:53:00,SystemResetWarning,0822.9,5.00,000.00,020.1,019.7,000.0,028.4,021.9,25.9,0000.0,0008.26,0003.51,0003.09
2024-03-29 18:54:00,SystemResetWarning,0822.8,5.00,000.00,020.1,019.7,000.0,028.4,021.9,26.0,0000.0,0008.10,0003.50,0003.09
2024-03-29 18:55:00,SystemResetWarning,0822.9,5.00,000.00,020.1,019.7,000.0,028.4,021.9,27.2,0000.0,0007.82,0003.49,0003.08
2024-03-29 18:56:00,SystemResetWarning,0822.9,5.00,000.00,020.2,019.7,000.0,028.5,021.9,26.3,0000.0,0007.27,0003.49,0003.09
2024-03-29 18:57:00,SystemResetWarning,0823.0,5.00,000.00,020.2,019.7,000.0,028.5,021.9,26.2,0000.0,0007.40,0003.51,0003.10
2024-03-29 18:58:00,SystemResetWarning,0823.0,5.00,000.00,020.2,019.7,000.0,028.5,022.0,26.2,0000.0,0007.45,0003.47,0003.10
2024-03-29 18:59:00,SystemResetWarning,0822.9,5.00,000.00,020.2,019.7,000.0,028.5,022.0,26.0,0000.0,0007.51,0003.48,0003.12
